GW7481 Weather Reports


time (UTC)temp
C
wind
direction
speed
KPH
gust
KPH
rain 1hr
cm
rain 24hr
cm
rain mn
cm
humidity
%
barometer
mb
20260905195029 16 0.0 0.0 0.00 0.15 0.15 70 1021.2
20260905194518 15 0.0 0.0 0.00 0.15 0.15 68 1021.5
20260905194024 15 0.0 0.0 0.00 0.15 0.15 71 1021.2
20260905193518 16 0.0 0.0 0.00 0.15 0.15 70 1020.8
20260905193018 16 0.0 0.0 0.00 0.15 0.15 67 1021.2
20260905192518 16 198 0.0 4.8 0.00 0.15 0.15 64 1021.6
20260905192019 16 0.0 0.0 0.00 0.15 0.15 65 1021.3
20260905191518 16 0.0 0.0 0.00 0.15 0.15 64 1021.3
20260905191038 17 0.0 0.0 0.00 0.15 0.15 64 1021.3
20260905190518 17 0.0 0.0 0.00 0.15 0.15 63 1020.9
20260905190038 17 0.0 0.0 0.00 0.15 0.15 62 1020.9
20260905185518 17 0.0 0.0 0.00 0.15 0.15 62 1020.9
20260905185039 17 0.0 0.0 0.00 0.15 0.15 62 1020.9
20260905184518 17 0.0 0.0 0.00 0.15 0.15 62 1020.9
20260905184039 17 0.0 0.0 0.00 0.15 0.15 62 1020.6
20260905183518 17 0.0 0.0 0.00 0.15 0.15 63 1020.9
20260905183038 17 198 0.0 4.8 0.00 0.15 0.15 61 1020.3
20260905182540 17 0.0 0.0 0.00 0.15 0.15 61 1020.6
20260905182018 17 0.0 0.0 0.00 0.15 0.15 59 1020.3
20260905181540 17 0.0 0.0 0.00 0.15 0.15 58 1020.3
20260905181018 18 0.0 0.0 0.00 0.15 0.15 57 1020.7
20260905180518 18 0.0 0.0 0.00 0.15 0.15 56 1020.4
20260905180022 18 0.0 0.0 0.00 0.15 0.15 55 1020.4
20260905175518 18 198 0.0 3.2 0.00 0.15 0.15 53 1020.1
20260905175020 19 198 0.0 3.2 0.00 0.15 0.15 53 1020.1
20260905174518 19 198 1.6 4.8 0.00 0.15 0.15 52 1020.1
20260905174018 19 198 1.6 4.8 0.00 0.15 0.15 52 1020.2
20260905173538 19 198 1.6 6.4 0.00 0.15 0.15 52 1020.2
20260905173018 19 198 1.6 6.4 0.00 0.15 0.15 51 1020.2
20260905172538 19 198 3.2 9.7 0.00 0.15 0.15 50 1020.2
20260905172026 20 198 3.2 8.0 0.00 0.15 0.15 50 1020.0
20260905171539 20 198 4.8 12.9 0.00 0.15 0.15 49 1020.0
20260905171022 20 198 3.2 12.9 0.00 0.15 0.15 49 1019.9
20260905170518 20 198 4.8 14.5 0.00 0.15 0.15 49 1019.9
20260905170028 20 198 3.2 12.9 0.00 0.15 0.15 49 1019.9
20260905165518 20 198 4.8 9.7 0.00 0.15 0.15 48 1020.3
20260905165018 20 198 1.6 8.0 0.00 0.15 0.15 48 1020.0
20260905164538 20 198 4.8 16.1 0.00 0.15 0.15 47 1019.6
20260905164018 21 198 1.6 8.0 0.00 0.15 0.15 47 1020.1
20260905163539 21 198 4.8 11.3 0.00 0.15 0.15 47 1019.8
20260905163020 21 198 6.4 16.1 0.00 0.15 0.15 45 1019.9
20260905162538 21 198 6.4 16.1 0.00 0.15 0.15 44 1019.9
20260905162038 22 198 6.4 12.9 0.00 0.15 0.15 44 1019.9
20260905161518 22 198 6.4 16.1 0.00 0.15 0.15 44 1019.9
20260905161042 22 198 6.4 16.1 0.00 0.15 0.15 43 1019.6
20260905160518 22 198 6.4 14.5 0.00 0.15 0.15 43 1019.6
20260905160038 22 198 6.4 20.9 0.00 0.15 0.15 43 1019.9
20260905155519 22 198 6.4 14.5 0.00 0.15 0.15 42 1019.6
20260905155038 22 198 8.0 27.4 0.00 0.15 0.15 42 1019.6
20260905154518 22 198 11.3 22.5 0.00 0.15 0.15 42 1019.6
20260905154039 22 198 8.0 17.7 0.00 0.15 0.15 42 1019.6
20260905153538 22 198 8.0 17.7 0.00 0.15 0.15 42 1019.7
20260905153022 22 198 8.0 19.3 0.00 0.15 0.15 42 1019.6
20260905152540 22 198 8.0 17.7 0.00 0.15 0.15 43 1019.6
20260905152019 21 198 6.4 14.5 0.00 0.15 0.15 44 1019.6
20260905151522 21 198 4.8 14.5 0.00 0.15 0.15 45 1019.6
20260905151019 21 198 6.4 12.9 0.00 0.15 0.15 45 1019.6
20260905150524 21 198 3.2 14.5 0.00 0.15 0.15 44 1019.7
20260905150025 21 198 3.2 17.7 0.00 0.15 0.15 45 1019.7
20260905145540 22 198 6.4 17.7 0.00 0.15 0.15 44 1019.7
20260905145026 23 198 4.8 9.7 0.00 0.15 0.15 42 1019.8
20260905144545 23 198 6.4 14.5 0.00 0.15 0.15 41 1019.8
20260905144018 23 198 8.0 16.1 0.00 0.15 0.15 41 1019.6
20260905143520 23 198 8.0 16.1 0.00 0.15 0.15 41 1019.9
20260905143038 23 198 4.8 14.5 0.00 0.15 0.15 42 1019.9
20260905142518 22 198 4.8 14.5 0.00 0.15 0.15 44 1019.9
20260905142038 23 198 3.2 8.0 0.00 0.15 0.15 45 1019.9
20260905141518 23 198 9.7 14.5 0.00 0.15 0.15 43 1019.6
20260905141106 22 198 3.2 11.3 0.00 0.15 0.15 45 1019.8
20260905140518 22 198 6.4 14.5 0.00 0.15 0.15 47 1019.7
20260905140041 23 198 4.8 11.3 0.00 0.15 0.15 46 1019.7
20260905135518 23 198 6.4 16.1 0.00 0.15 0.15 45 1019.8
20260905135038 23 198 6.4 17.7 0.00 0.15 0.15 45 1020.1
20260905134518 23 198 4.8 14.5 0.00 0.15 0.15 46 1019.8
20260905134018 23 198 8.0 22.5 0.00 0.15 0.15 47 1019.8
20260905133521 22 198 6.4 12.9 0.00 0.15 0.15 49 1019.4
20260905133018 22 198 4.8 14.5 0.00 0.15 0.15 49 1019.7
20260905132519 22 198 8.0 19.3 0.00 0.15 0.15 52 1020.0
20260905132039 22 198 8.0 16.1 0.00 0.15 0.15 50 1019.7
20260905131518 22 198 9.7 32.2 0.00 0.15 0.15 50 1019.7
20260905131038 22 198 6.4 16.1 0.00 0.15 0.15 51 1019.7
20260905130518 22 198 9.7 19.3 0.00 0.15 0.15 52 1019.7
20260905130042 23 198 8.0 20.9 0.00 0.15 0.15 51 1019.8
20260905125524 23 198 4.8 14.5 0.00 0.15 0.15 51 1020.1
20260905125019 22 198 1.6 11.3 0.00 0.15 0.15 55 1019.8
20260905124518 22 198 1.6 6.4 0.00 0.15 0.15 55 1020.1
20260905124018 22 198 6.4 19.3 0.00 0.15 0.15 56 1020.1
20260905123518 22 198 6.4 14.5 0.00 0.15 0.15 57 1019.7
20260905123024 21 198 4.8 19.3 0.00 0.15 0.15 57 1020.1
20260905122518 22 198 6.4 14.5 0.00 0.15 0.15 57 1020.1
20260905122022 21 198 6.4 14.5 0.00 0.15 0.15 57 1020.0
20260905121520 21 198 4.8 11.3 0.00 0.15 0.15 59 1020.3
20260905121018 20 198 3.2 6.4 0.00 0.15 0.15 61 1020.2
20260905120542 20 198 4.8 12.9 0.00 0.15 0.15 61 1019.9
20260905120021 20 198 6.4 14.5 0.00 0.15 0.15 62 1020.2
20260905115541 20 198 6.4 14.5 0.00 0.15 0.15 62 1019.9
20260905115018 20 198 6.4 14.5 0.00 0.15 0.15 61 1020.2
20260905114521 20 198 8.0 22.5 0.00 0.15 0.15 61 1019.9
20260905114023 20 198 6.4 14.5 0.00 0.15 0.15 59 1020.3
20260905113518 20 198 8.0 19.3 0.00 0.15 0.15 60 1020.3
20260905113019 20 198 8.0 14.5 0.00 0.15 0.15 62 1020.3
20260905112519 20 198 6.4 14.5 0.00 0.15 0.15 63 1020.3
20260905112025 20 198 4.8 14.5 0.00 0.15 0.15 64 1019.9
20260905111520 19 198 6.4 16.1 0.00 0.15 0.15 65 1020.2
20260905111019 19 198 4.8 14.5 0.00 0.15 0.15 66 1020.2
20260905110519 21 198 8.0 29.0 0.00 0.15 0.15 63 1020.3
20260905110022 21 198 3.2 11.3 0.00 0.15 0.15 62 1020.3
20260905105519 20 198 6.4 14.5 0.00 0.15 0.15 64 1020.6
20260905105036 20 198 4.8 17.7 0.00 0.15 0.15 64 1020.2
20260905104518 20 198 6.4 12.9 0.00 0.15 0.15 64 1020.2
20260905104025 19 198 8.0 24.1 0.00 0.15 0.15 66 1020.2
20260905103518 19 198 4.8 11.3 0.00 0.15 0.15 70 1020.2
20260905103019 18 198 8.0 16.1 0.00 0.15 0.15 71 1020.1
20260905102521 18 198 6.4 14.5 0.00 0.15 0.15 72 1020.1
20260905102020 18 198 8.0 14.5 0.00 0.15 0.15 72 1020.1
20260905101518 18 198 3.2 9.7 0.00 0.15 0.15 74 1020.5
20260905101028 18 198 4.8 11.3 0.00 0.15 0.15 72 1020.5
20260905100518 18 198 6.4 19.3 0.00 0.15 0.15 72 1020.5
20260905100050 18 198 8.0 16.1 0.00 0.15 0.15 73 1020.5
20260905095518 18 198 3.2 12.9 0.00 0.15 0.15 74 1020.2
20260905095052 18 198 1.6 8.0 0.00 0.15 0.15 76 1020.5
20260905094519 18 198 3.2 12.9 0.00 0.15 0.15 76 1020.2
20260905094042 18 198 4.8 9.7 0.00 0.15 0.15 77 1020.1
20260905093519 17 198 6.4 12.9 0.00 0.15 0.15 77 1020.4
20260905093032 17 198 6.4 16.1 0.00 0.15 0.15 79 1020.3
20260905092519 18 198 8.0 14.5 0.00 0.15 0.15 81 1020.4
20260905092019 17 198 6.4 12.9 0.00 0.15 0.15 82 1020.4
20260905091519 17 198 4.8 12.9 0.00 0.15 0.15 83 1020.6
20260905091032 17 198 1.6 4.8 0.00 0.15 0.15 84 1020.7
20260905090519 17 198 4.8 9.7 0.00 0.15 0.15 85 1020.4
20260905090018 16 198 4.8 11.3 0.00 0.15 0.15 88 1020.3
20260905085519 16 198 3.2 11.3 0.00 0.15 0.15 88 1020.6
20260905085019 16 198 4.8 9.7 0.00 0.15 0.15 88 1020.3
20260905084521 16 198 6.4 14.5 0.00 0.15 0.15 88 1020.3
20260905084038 16 198 4.8 9.7 0.00 0.15 0.15 89 1020.3
20260905083519 16 198 3.2 4.8 0.00 0.15 0.15 89 1020.3
20260905083047 16 198 3.2 4.8 0.00 0.15 0.15 89 1020.3
20260905082519 16 198 3.2 9.7 0.00 0.15 0.15 89 1020.3
20260905082023 15 198 4.8 9.7 0.00 0.15 0.15 91 1020.3
20260905081521 15 198 4.8 8.0 0.00 0.15 0.15 93 1020.3
20260905081030 15 198 4.8 8.0 0.00 0.15 0.15 95 1020.0
20260905080518 15 198 1.6 4.8 0.00 0.15 0.15 95 1020.0
20260905080023 15 198 0.0 4.8 0.00 0.15 0.15 95 1020.3
20260905075518 15 0.0 0.0 0.00 0.15 0.15 95 1019.3
20260905075048 15 198 0.0 4.8 0.00 0.15 0.15 95 1019.3
20260905074520 15 198 1.6 4.8 0.00 0.15 0.15 95 1019.6
20260905074039 15 0.0 0.0 0.00 0.15 0.15 94 1019.6
20260905073519 15 198 0.0 4.8 0.00 0.15 0.15 92 1019.7
20260905073039 15 0.0 0.0 0.00 0.15 0.15 92 1019.7
20260905072519 15 198 0.0 4.8 0.00 0.15 0.15 92 1019.7
20260905072045 15 198 1.6 4.8 0.00 0.15 0.15 93 1019.7
20260905071519 15 198 1.6 4.8 0.00 0.15 0.15 94 1019.7
20260905071045 15 198 0.0 3.2 0.00 0.15 0.15 95 1019.7
20260905070521 15 198 0.0 4.8 0.00 0.15 0.15 95 1020.0
20260905070039 15 0.0 0.0 0.05 0.15 0.15 95 1019.2
20260905065519 15 198 3.2 6.4 0.05 0.15 0.15 94 1019.2
20260905065019 15 198 1.6 4.8 0.05 0.15 0.15 94 1018.9
20260905064519 15 0.0 0.0 0.08 0.15 0.15 93 1018.9
20260905064033 15 0.0 0.0 0.08 0.15 0.15 94 1018.9
20260905063519 15 0.0 0.0 0.08 0.15 0.15 94 1018.7
20260905063045 15 0.0 0.0 0.08 0.15 0.15 93 1019.0
20260905062521 15 0.0 0.0 0.08 0.15 0.15 94 1019.0
20260905062045 15 0.0 0.0 0.08 0.15 0.15 92 1019.0
20260905061519 15 0.0 0.0 0.08 0.15 0.15 89 1018.7
20260905061046 15 198 0.0 8.0 0.08 0.15 0.15 88 1018.7
20260905060518 15 198 1.6 8.0 0.08 0.15 0.15 88 1019.0
20260905060039 15 198 3.2 9.7 0.05 0.13 0.13 85 1019.0
20260905055519 15 198 3.2 9.7 0.05 0.13 0.13 86 1019.6
20260905055020 15 198 1.6 4.8 0.05 0.13 0.13 87 1019.0
20260905054518 15 198 1.6 4.8 0.00 0.08 0.08 85 1018.6
20260905054023 15 198 1.6 8.0 0.00 0.08 0.08 85 1019.3
20260905053519 16 198 1.6 8.0 0.00 0.08 0.08 84 1019.1
20260905053019 16 198 1.6 9.7 0.00 0.08 0.08 80 1019.1
20260905052538 16 198 3.2 9.7 0.00 0.08 0.08 77 1019.1
20260905052022 16 198 4.8 11.3 0.05 0.08 0.08 77 1019.1
20260905051538 16 198 4.8 12.9 0.05 0.08 0.08 78 1018.5
20260905051018 16 198 3.2 8.0 0.05 0.08 0.08 81 1018.5
20260905050558 16 198 3.2 9.7 0.05 0.08 0.08 82 1018.6
20260905050020 16 198 3.2 11.3 0.05 0.08 0.08 82 1018.6
20260905045539 17 198 3.2 11.3 0.05 0.08 0.08 84 1018.6
20260905045019 16 198 3.2 12.9 0.05 0.08 0.08 84 1018.2
20260905044538 16 198 3.2 9.7 0.05 0.08 0.08 87 1018.5
20260905044033 16 198 0.0 4.8 0.05 0.08 0.08 89 1017.8
20260905043518 16 198 0.0 4.8 0.05 0.08 0.08 88 1017.9
20260905043025 16 0.0 0.0 0.05 0.08 0.08 86 1017.9
20260905042519 17 198 3.2 12.9 0.05 0.08 0.08 84 1017.6
20260905042019 17 198 3.2 8.0 0.00 0.05 0.05 79 1018.0
20260905041519 18 198 1.6 6.4 0.00 0.05 0.05 75 1017.7
20260905041022 18 198 3.2 9.7 0.00 0.05 0.05 74 1017.3
20260905040518 18 198 1.6 6.4 0.00 0.05 0.05 75 1017.3
20260905040028 17 198 1.6 8.0 0.00 0.05 0.05 77 1016.9
20260905035521 17 0.0 0.0 0.00 0.05 0.05 78 1016.9
20260905035019 17 198 0.0 3.2 0.00 0.05 0.05 77 1016.9
20260905034519 17 198 0.0 4.8 0.00 0.05 0.05 77 1016.9
20260905034019 17 198 0.0 4.8 0.00 0.05 0.05 77 1016.9
20260905033539 17 198 0.0 4.8 0.00 0.05 0.05 78 1016.6
20260905033020 17 198 0.0 4.8 0.00 0.05 0.05 78 1016.7
20260905032539 18 198 0.0 6.4 0.00 0.05 0.05 77 1016.8
20260905032019 18 198 1.6 11.3 0.00 0.05 0.05 77 1016.8
20260905031519 18 198 1.6 14.5 0.00 0.05 0.05 77 1016.8
20260905031023 18 198 1.6 9.7 0.00 0.05 0.05 77 1016.7
20260905030521 18 198 1.6 4.8 0.00 0.05 0.05 77 1016.4
20260905030036 18 198 3.2 11.3 0.00 0.05 0.05 76 1016.1
20260905025521 18 198 3.2 8.0 0.00 0.05 0.05 76 1016.1
20260905025020 18 198 4.8 16.1 0.00 0.05 0.05 76 1016.1
20260905024521 19 198 4.8 12.9 0.00 0.05 0.05 76 1016.1
20260905024020 19 198 1.6 6.4 0.00 0.05 0.05 75 1015.9
20260905023521 19 198 3.2 14.5 0.00 0.05 0.05 75 1016.1
20260905023020 20 198 3.2 9.7 0.00 0.05 0.05 74 1016.1
20260905022522 20 198 3.2 14.5 0.00 0.05 0.05 72 1015.8
20260905022023 20 198 4.8 19.3 0.00 0.05 0.05 71 1016.2
20260905021521 21 198 3.2 11.3 0.00 0.05 0.05 70 1015.9
20260905021039 21 198 3.2 11.3 0.00 0.05 0.05 71 1016.2
20260905020519 21 198 1.6 12.9 0.05 0.05 0.05 70 1016.2
20260905020038 21 198 1.6 11.3 0.05 0.05 0.05 70 1015.9
20260905015519 21 198 1.6 6.4 0.05 0.05 0.05 68 1015.6
20260905015023 20 198 3.2 9.7 0.05 0.05 0.05 68 1015.1
20260905014518 18 198 3.2 9.7 0.05 0.05 0.05 77 1015.0
20260905014028 18 0.0 0.0 0.05 0.05 0.05 86 1015.0
20260905013519 18 0.0 0.0 0.05 0.05 0.05 85 1014.7
20260905013043 19 0.0 0.0 0.05 0.05 0.05 82 1014.7
20260905012519 19 0.0 0.0 0.05 0.05 0.05 83 1015.0
20260905012047 20 0.0 0.0 0.05 0.05 0.05 81 1014.8
20260905011520 20 198 1.6 6.4 0.05 0.05 0.05 77 1014.7
20260905011036 18 198 1.6 6.4 0.05 0.05 0.05 81 1014.7
20260905010519 18 198 1.6 4.8 0.00 0.00 0.00 86 1014.9
20260905010018 18 198 0.0 4.8 0.00 0.00 0.00 85 1014.6
20260905005521 18 0.0 0.0 0.00 0.00 0.00 84 1014.3
20260905005027 18 198 1.6 4.8 0.00 0.00 0.00 82 1014.3
20260905004519 19 0.0 0.0 0.00 0.00 0.00 77 1014.7
20260905004032 19 0.0 0.0 0.00 0.00 0.00 76 1014.7
20260905003518 19 0.0 0.0 0.00 0.00 0.00 76 1014.6
20260905003028 19 0.0 0.0 0.00 0.00 0.00 76 1014.3
20260905002521 19 0.0 0.0 0.00 0.00 0.00 76 1014.3
20260905002021 19 0.0 0.0 0.00 0.00 0.00 76 1014.3
20260905001518 19 0.0 0.0 0.00 0.00 0.00 76 1014.3
20260905001030 19 0.0 0.0 0.00 0.00 0.00 77 1014.3
20260905000519 19 0.0 0.0 0.00 0.00 0.00 77 1014.3
20260905000025 19 0.0 0.0 0.00 0.00 0.00 77 1014.2
20260904235524 19 0.0 0.0 0.00 0.00 0.00 77 1014.2
20260904235019 19 0.0 0.0 0.00 0.00 0.00 76 1014.2
20260904234521 19 0.0 0.0 0.00 0.00 0.00 76 1014.6
20260904234025 19 0.0 0.0 0.00 0.00 0.00 76 1014.6
20260904233524 19 0.0 0.0 0.00 0.00 0.00 76 1014.2
20260904233026 19 0.0 0.0 0.00 0.00 0.00 76 1014.6
20260904232520 19 0.0 0.0 0.00 0.00 0.00 76 1014.6
20260904232019 19 0.0 0.0 0.00 0.00 0.00 74 1014.6
20260904231522 20 0.0 0.0 0.00 0.00 0.00 73 1014.3
20260904231019 20 0.0 0.0 0.00 0.00 0.00 72 1014.3
20260904230519 20 0.0 0.0 0.00 0.00 0.00 73 1014.3
20260904230022 19 0.0 0.0 0.00 0.00 0.00 74 1014.2
20260904225519 19 0.0 0.0 0.00 0.00 0.00 76 1014.2
20260904225033 19 0.0 0.0 0.00 0.00 0.00 77 1014.2
20260904224518 18 0.0 0.0 0.00 0.00 0.00 77 1014.5
20260904224108 18 0.0 0.0 0.00 0.00 0.00 78 1014.2
20260904223520 18 0.0 0.0 0.00 0.00 0.00 78 1014.4
20260904223041 18 0.0 0.0 0.00 0.00 0.00 78 1014.3
20260904222518 19 0.0 0.0 0.00 0.00 0.00 78 1014.0
20260904222044 19 0.0 0.0 0.00 0.00 0.00 77 1014.4
20260904221519 19 198 0.0 3.2 0.00 0.00 0.00 76 1014.4
20260904221045 19 0.0 0.0 0.00 0.00 0.00 75 1014.1
20260904220520 19 0.0 0.0 0.00 0.00 0.00 75 1014.3
20260904220019 20 0.0 0.0 0.00 0.00 0.00 75 1014.4
20260904215518 20 0.0 0.0 0.00 0.00 0.00 73 1014.1
20260904215027 20 0.0 0.0 0.00 0.00 0.00 72 1014.0
20260904214518 20 0.0 0.0 0.00 0.00 0.00 74 1014.4
20260904214018 20 0.0 0.0 0.00 0.00 0.00 73 1014.1
20260904213518 20 0.0 0.0 0.00 0.00 0.00 74 1014.1
20260904213018 19 0.0 0.0 0.00 0.00 0.00 74 1014.1
20260904212518 19 0.0 0.0 0.00 0.00 0.00 75 1014.4
20260904212018 19 0.0 0.0 0.00 0.00 0.00 75 1014.4
20260904211518 19 0.0 0.0 0.00 0.00 0.00 75 1014.4
20260904211018 19 0.0 0.0 0.00 0.00 0.00 74 1014.4
20260904210518 19 0.0 0.0 0.00 0.00 0.00 75 1014.3
20260904210017 19 0.0 0.0 0.00 0.00 0.00 75 1014.3
20260904205518 19 0.0 0.0 0.00 0.00 0.00 74 1014.6
20260904205020 19 0.0 0.0 0.00 0.00 0.00 74 1014.6
20260904204518 19 0.0 0.0 0.00 0.00 0.00 74 1014.6
20260904204018 19 0.0 0.0 0.00 0.00 0.00 73 1014.6
20260904203518 19 0.0 0.0 0.00 0.00 0.00 73 1014.6
20260904203018 19 0.0 0.0 0.00 0.00 0.00 72 1014.5
20260904202518 20 0.0 0.0 0.00 0.00 0.00 71 1014.5
20260904202018 20 0.0 0.0 0.00 0.00 0.00 71 1014.5
20260904201538 20 0.0 0.0 0.00 0.00 0.00 70 1014.5
20260904201018 20 0.0 0.0 0.00 0.00 0.00 70 1014.2
20260904200538 20 0.0 0.0 0.00 0.00 0.00 71 1014.5
20260904200017 20 0.0 0.0 0.00 0.00 0.00 71 1014.2
20260904195517 20 0.0 0.0 0.00 0.00 0.00 71 1014.5